Home   Weather   Sharjah   Past weeks

Flag for United Arab Emirates Past Weather in Sharjah, Sharjah, United Arab Emirates — Yesterday and Last 2 Weeks

Now
100 °F

Passing clouds.


Feels Like: 106 °F
Forecast: 87 / 98 °F
Wind: 7 mph from Southwest

Location: Sharjah International Airport

Current Time: Sep 27, 2016 at 12:46:39 PM

Latest Report: Sep 27, 2016 at 12:00 PM


Visibility: N/A

Pressure: 29.80 "Hg

Humidity: 35%

Dew Point: 68 °F

Location of SharjahLocation

Past Weather in Sharjah — Graph

°F

Sharjah Temperature Yesterday

Maximum temperature yesterday: 102 °F (at 1:00 PM)
Minimum temperature yesterday: 86 °F (at 4:00 AM)
Average temperature yesterday: 91 °F

High & Low Weather Summary for the Past Weeks

 TemperatureHumidityPressure
High106 °F (Sep 12, 1:00 PM)94% (Sep 13, 7:00 AM)29.83 "Hg (Sep 13, 7:00 AM)
Low79 °F (Sep 19, 6:00 AM)20% (Sep 12, 12:00 PM)29.56 "Hg (Sep 24, 5:00 PM)
Average91 °F63%29.68 "Hg
* Reported Sep 12 11:00 AM — Sep 27 11:00 AM, Sharjah, Weather by CustomWeather, © 2016

Note: Actual official high and low records may vary slightly from our data, if they occured in-between our weather recording intervals... More about our weather records

Advertising

Sharjah Weather History for the Previous 24 Hours

Scroll right to see more
 ConditionsComfort  
Time TempWeatherWind HumidityBarometerVisibility
11:00 AM
Tue, Sep 27
97 °FSunny.9 mph39%29.83 "Hg10 mi
10:00 AM93 °FSunny.13 mph44%29.83 "Hg10 mi
9:00 AM90 °FSunny.12 mph52%29.83 "Hg10 mi
8:00 AM86 °FClear.6 mph84%29.83 "Hg4 mi
7:00 AM81 °FHaze.5 mph89%29.80 "Hg2 mi
6:00 AM82 °FClear.5 mph84%29.77 "Hg4 mi
5:00 AM81 °FPassing clouds.6 mph89%29.74 "Hg4 mi
4:00 AM82 °FClear.3 mph89%29.74 "Hg4 mi
3:00 AM82 °FClear.5 mph89%29.74 "Hg4 mi
2:00 AM84 °FClear.3 mph84%29.74 "Hg4 mi
1:00 AM86 °FClear.3 mph84%29.74 "Hg4 mi
12:00 AM88 °FClear.3 mph75%29.74 "Hg4 mi
11:00 PM
Mon, Sep 26
86 °FClear.5 mph79%29.74 "Hg4 mi
10:00 PM88 °FClear.3 mph79%29.74 "Hg5 mi
9:00 PM90 °FClear.2 mph75%29.74 "Hg5 mi
8:00 PM91 °FClear.3 mph71%29.71 "Hg10 mi
7:00 PM91 °FClear.6 mph71%29.71 "Hg10 mi
6:00 PM93 °FSunny.9 mph63%29.68 "Hg10 mi
5:00 PM95 °FSunny.10 mph63%29.68 "Hg10 mi
4:00 PM97 °FSunny.14 mph60%29.68 "Hg10 mi
3:00 PM97 °FSunny.12 mph56%29.68 "Hg10 mi
2:00 PM97 °FSunny.14 mph56%29.71 "Hg10 mi
1:00 PM102 °FSunny.3 mph35%29.71 "Hg10 mi
12:00 PM99 °FPassing clouds.3 mph42%29.74 "HgN/A
Weather by CustomWeather, © 2016

See weather overviewHow to use our weather pages